Location: Firdgum
(53.2488°N, 5.5615°E)
Time: 05:43:41
(UTC+00:00)

Cosmos 2297 Rocket - Pass Details

Date: 08 December 2019
Orbit: 838 x 845 km, 71.0° (Epoch: 19 January)

Event Time Altitude Azimuth Distance (km) Brightness Sun altitude
Exits shadow 05:52:13 21° 300° (WNW) 1,801 3.3 -14.7°
Maximum altitude 05:53:55 24° 326° (NW) 1,671 3.3 -14.5°
Drops below altitude 10° 05:58:29 10° 20° (NNE) 2,472 4.6 -13.8°
Sets 06:01:25 0° 34° (NE) 3,410 5.5 -13.4°
